Terminal Aerodrome Forecast
Issued by NWS

Home | Current Version | Previous Version | Text Only | Print | Product List | Glossary On
Versions: 1 2 3 4 5 6 7 8 9 10 11 12 13 14 15 16 17 18
533
FTUS43 KJKL 211442 AAC
TAFSME
TAF AMD
KSME 211442Z 2115/2212 27006KT P6SM SCT019 BKN045 OVC090
     FM211800 33006KT P6SM VCTS BKN035CB BKN050
     FM220300 36008KT 6SM SHRA OVC015=

USA.gov is the U.S. government's official web portal to all federal, state and local government web resources and services.